Weather History for Keene, NH

Change the Weather History Date:

Saturday, January 28, 2012

  Actual Average Record
Temperature  
Mean Temperature 36 °F -  
Max Temperature 44 °F 32 °F 55 °F (2002)
Min Temperature 28 °F 9 °F -31 °F (1935)
Degree Days  
Heating Degree Days 29    
Moisture  
Dew Point 25 °F    
Average Humidity 63    
Maximum Humidity 86    
Minimum Humidity 46    
Precipitation  
Precipitation 0.00 in - - ()
Sea Level Pressure  
Sea Level Pressure 29.85 in    
Wind  
Wind Speed 8 mph (SW)    
Max Wind Speed 20 mph    
Max Gust Speed 28 mph    
Visibility 10 miles    
Events      
Averages and records for this station are not official NWS values.
T = Trace of Precipitation, MM = Missing Value Source: NWS Daily Summary

Daily Weather History Graph

Daily Weather History Graph

Search for Another Location

Airport:

Trip Planner

Search our weather history database for the weather conditions in past years. The results will help you decide how hot, cold, wet, or windy it might be!

Date:

Astronomy

Jan. 28, 2012 Rise Set
Actual Time 7:08 AM EST 4:56 PM EST
Civil Twilight 6:37 AM EST 5:26 PM EST
Nautical Twilight 6:03 AM EST 6:00 PM EST
Astronomical Twilight 5:30 AM EST 6:34 PM EST
Moon 9:19 AM EST (1/28) 10:52 PM EST (1/28)
Length of Visible Light 10h 48m
Length of Day
9h 47m
Waxing Crescent, 27% of the Moon is Illuminated
Jan 28
Waxing Crescent
Jan 30
First Quarter
Feb 7
Full
Feb 14
Last Quarter
Feb 21
New

Hourly Weather History & Observations

Time (EST) Temp. Windchill Dew Point Humidity Pressure Visibility Wind Dir Wind Speed Gust Speed Precip Events Conditions
12:15 AM 39.2 °F 32.5 °F 26.6 °F 61% 29.66 in 10.0 mi West 10.4 mph 20.7 mph N/A   Overcast
12:35 AM 37.4 °F 30.3 °F 26.6 °F 65% 29.68 in 10.0 mi WNW 10.4 mph 18.4 mph N/A   Overcast
12:55 AM 37.4 °F 31.4 °F 26.6 °F 65% 29.70 in 10.0 mi SW 8.1 mph - N/A   Overcast
1:15 AM 37.4 °F 27.2 °F 26.6 °F 65% 29.72 in 10.0 mi WNW 19.6 mph 25.3 mph N/A   Overcast
1:35 AM 37.4 °F 28.9 °F 24.8 °F 60% 29.73 in 10.0 mi WNW 13.8 mph 25.3 mph N/A   Overcast
1:55 AM 37.4 °F 29.8 °F 26.6 °F 65% 29.74 in 10.0 mi WNW 11.5 mph 20.7 mph N/A   Overcast
2:35 AM 37.4 °F 32.1 °F 24.8 °F 60% 29.78 in 10.0 mi WNW 6.9 mph - N/A   Overcast
2:55 AM 37.4 °F 32.1 °F 26.6 °F 65% 29.79 in 10.0 mi NW 6.9 mph 16.1 mph N/A   Overcast
3:15 AM 37.4 °F 28.2 °F 24.8 °F 60% 29.79 in 10.0 mi NW 16.1 mph 27.6 mph N/A   Overcast
3:35 AM 37.4 °F 30.8 °F 23.0 °F 56% 29.80 in 10.0 mi WNW 9.2 mph 23.0 mph N/A   Overcast
3:55 AM 37.4 °F 30.3 °F 23.0 °F 56% 29.81 in 10.0 mi NW 10.4 mph 18.4 mph N/A   Overcast
4:15 AM 37.4 °F 32.1 °F 24.8 °F 60% 29.83 in 10.0 mi WNW 6.9 mph - N/A   Overcast
4:35 AM 37.4 °F 31.4 °F 23.0 °F 56% 29.83 in 10.0 mi NW 8.1 mph - N/A   Overcast
4:55 AM 37.4 °F - 23.0 °F 56% 29.85 in 10.0 mi Calm Calm - N/A   Overcast
5:35 AM 35.6 °F 29.9 °F 23.0 °F 60% 29.87 in 10.0 mi NW 6.9 mph - N/A   Overcast
5:55 AM 35.6 °F 31.7 °F 24.8 °F 65% 29.88 in 10.0 mi NW 4.6 mph - N/A   Overcast
6:15 AM 35.6 °F 31.7 °F 21.2 °F 56% 29.90 in 10.0 mi SW 4.6 mph - N/A   Mostly Cloudy
6:35 AM 33.8 °F 29.6 °F 24.8 °F 70% 29.90 in 10.0 mi WNW 4.6 mph - N/A   Clear
6:55 AM 33.8 °F - 24.8 °F 70% 29.91 in 10.0 mi Calm Calm - N/A   Clear
7:15 AM 30.2 °F - 24.8 °F 80% 29.92 in 10.0 mi Calm Calm - N/A   Clear
7:35 AM 30.2 °F - 24.8 °F 80% 29.92 in 10.0 mi Calm Calm - N/A   Clear
7:55 AM 28.4 °F - 24.8 °F 86% 29.93 in 10.0 mi Calm Calm - N/A   Clear
8:15 AM 30.2 °F 26.7 °F 26.6 °F 86% 29.94 in 10.0 mi South 3.5 mph - N/A   Clear
8:35 AM 32.0 °F - 26.6 °F 80% 29.94 in 10.0 mi Calm Calm - N/A   Clear
8:55 AM 35.6 °F 30.7 °F 26.6 °F 70% 29.96 in 10.0 mi South 5.8 mph - N/A   Clear
9:15 AM 37.4 °F 33.8 °F 24.8 °F 60% 29.97 in 10.0 mi South 4.6 mph - N/A   Clear
9:35 AM 37.4 °F 33.8 °F 24.8 °F 60% 29.96 in 10.0 mi South 4.6 mph - N/A   Clear
9:55 AM 37.4 °F 33.8 °F 24.8 °F 60% 29.96 in 10.0 mi South 4.6 mph - N/A   Clear
10:35 AM 39.2 °F 35.0 °F 24.8 °F 56% 29.98 in 10.0 mi WSW 5.8 mph - N/A   Clear
11:15 AM 39.2 °F 35.0 °F 24.8 °F 56% 29.96 in 10.0 mi South 5.8 mph - N/A   Clear
11:35 AM 39.2 °F 34.2 °F 24.8 °F 56% 29.95 in 10.0 mi South 6.9 mph - N/A   Clear
11:55 AM 39.2 °F 34.2 °F 26.6 °F 61% 29.93 in 10.0 mi South 6.9 mph - N/A   Clear
12:15 PM 39.2 °F 37.0 °F 24.8 °F 56% 29.93 in 10.0 mi SSW 3.5 mph - N/A   Clear
12:35 PM 39.2 °F 35.0 °F 24.8 °F 56% 29.91 in 10.0 mi SSW 5.8 mph - N/A   Clear
1:15 PM 42.8 °F 38.0 °F 26.6 °F 53% 29.88 in 10.0 mi SSW 8.1 mph - N/A   Clear
1:35 PM 42.8 °F 37.0 °F 24.8 °F 49% 29.87 in 10.0 mi SSW 10.4 mph - N/A   Clear
1:55 PM 44.6 °F 39.2 °F 24.8 °F 46% 29.87 in 10.0 mi South 10.4 mph - N/A   Clear
2:15 PM 44.6 °F 39.7 °F 24.8 °F 46% 29.86 in 10.0 mi South 9.2 mph - N/A   Clear
2:35 PM 44.6 °F 39.2 °F 24.8 °F 46% 29.85 in 10.0 mi South 10.4 mph 17.3 mph N/A   Clear
2:55 PM 42.8 °F 37.0 °F 23.0 °F 46% 29.84 in 10.0 mi South 10.4 mph - N/A   Clear
3:15 PM 42.8 °F 36.6 °F 24.8 °F 49% 29.85 in 10.0 mi South 11.5 mph - N/A   Clear
4:15 PM 42.8 °F 37.5 °F 24.8 °F 49% 29.83 in 10.0 mi South 9.2 mph - N/A   Clear
4:35 PM 41.0 °F 35.8 °F 24.8 °F 53% 29.83 in 10.0 mi SSE 8.1 mph - N/A   Clear
4:55 PM 39.2 °F 37.0 °F 26.6 °F 61% 29.81 in 10.0 mi SSE 3.5 mph - N/A   Clear
5:15 PM 39.2 °F 35.9 °F 24.8 °F 56% 29.82 in 10.0 mi South 4.6 mph - N/A   Clear
5:35 PM 37.4 °F 31.4 °F 24.8 °F 60% 29.83 in 10.0 mi South 8.1 mph - N/A   Clear
5:55 PM 37.4 °F 31.4 °F 24.8 °F 60% 29.83 in 10.0 mi South 8.1 mph - N/A   Partly Cloudy
6:15 PM 39.2 °F 33.0 °F 26.6 °F 61% 29.83 in 10.0 mi South 9.2 mph - N/A   Mostly Cloudy
6:55 PM 39.2 °F 31.6 °F 24.8 °F 56% 29.84 in 10.0 mi South 12.7 mph 19.6 mph N/A   Partly Cloudy
7:15 PM 37.4 °F 32.8 °F 24.8 °F 60% 29.84 in 10.0 mi South 5.8 mph - N/A   Clear
7:35 PM 37.4 °F 32.8 °F 24.8 °F 60% 29.84 in 10.0 mi South 5.8 mph - N/A   Clear
7:55 PM 33.8 °F - 24.8 °F 70% 29.84 in 10.0 mi Calm Calm - N/A   Clear
8:15 PM 33.8 °F 30.8 °F 24.8 °F 70% 29.83 in 10.0 mi SE 3.5 mph - N/A   Scattered Clouds
8:35 PM 35.6 °F 31.7 °F 24.8 °F 65% 29.82 in 10.0 mi South 4.6 mph - N/A   Scattered Clouds
8:55 PM 32.0 °F 28.7 °F 24.8 °F 75% 29.82 in 10.0 mi South 3.5 mph - N/A   Partly Cloudy
9:15 PM 35.6 °F 29.9 °F 26.6 °F 70% 29.82 in 10.0 mi South 6.9 mph - N/A   Mostly Cloudy
9:35 PM 35.6 °F 30.7 °F 26.6 °F 70% 29.81 in 10.0 mi SSW 5.8 mph - N/A   Overcast
9:55 PM 35.6 °F 30.7 °F 26.6 °F 70% 29.82 in 10.0 mi SSW 5.8 mph - N/A   Overcast
10:15 PM 37.4 °F 28.9 °F 28.4 °F 70% 29.82 in 10.0 mi SW 13.8 mph 23.0 mph N/A   Mostly Cloudy
10:35 PM 37.4 °F 30.8 °F 28.4 °F 70% 29.84 in 10.0 mi WSW 9.2 mph 18.4 mph N/A   Mostly Cloudy
10:55 PM 35.6 °F 29.9 °F 28.4 °F 75% 29.86 in 10.0 mi NNW 6.9 mph - N/A   Overcast
11:15 PM 35.6 °F 32.8 °F 28.4 °F 75% 29.85 in 10.0 mi SW 3.5 mph - N/A   Mostly Cloudy
11:35 PM 35.6 °F 31.7 °F 28.4 °F 75% 29.86 in 10.0 mi SW 4.6 mph - N/A   Mostly Cloudy